Time,TemperatureF,DewpointF,PressureIn,WindDirection,WindDirectionDegrees,WindSpeedMPH,WindSpeedGustMPH,Humidity,HourlyPrecipIn,Conditions,Clouds,dailyrainin,SoftwareType,DateUTC
2013-01-18 00:10:00,26.4,21.0,30.40,ESE,123,4.0,5.0,80,0.00,,,0.00,weatherlink.com 1.10,2013-01-18 06:10:00,
2013-01-18 00:25:00,27.1,21.0,30.39,SE,144,3.0,5.0,79,0.00,,,0.00,weatherlink.com 1.10,2013-01-18 06:25:00,
2013-01-18 00:40:00,26.6,21.0,30.39,SE,140,2.0,4.0,80,0.00,,,0.00,weatherlink.com 1.10,2013-01-18 06:40:00,
2013-01-18 00:55:00,26.6,22.0,30.38,SSE,148,2.0,4.0,81,0.00,,,0.00,weatherlink.com 1.10,2013-01-18 06:55:00,
2013-01-18 01:10:00,26.9,23.0,30.38,SSE,148,2.0,6.0,84,0.00,,,0.00,weatherlink.com 1.10,2013-01-18 07:10:00,
2013-01-18 01:25:00,27.9,24.0,30.37,South,183,7.0,7.0,85,0.00,,,0.00,weatherlink.com 1.10,2013-01-18 07:25:00,
2013-01-18 01:40:00,29.7,25.0,30.36,SE,138,5.0,9.0,84,0.00,,,0.00,weatherlink.com 1.10,2013-01-18 07:40:00,
2013-01-18 01:55:00,30.1,26.0,30.36,SSE,165,2.0,6.0,83,0.00,,,0.00,weatherlink.com 1.10,2013-01-18 07:55:00,
2013-01-18 02:10:00,31.0,26.0,30.35,SSE,161,3.0,11.0,82,0.00,,,0.00,weatherlink.com 1.10,2013-01-18 08:10:00,
2013-01-18 02:25:00,31.8,26.0,30.35,SSE,161,6.0,13.0,80,0.00,,,0.00,weatherlink.com 1.10,2013-01-18 08:25:00,
2013-01-18 02:40:00,31.9,26.0,30.35,SE,126,3.0,10.0,80,0.00,,,0.00,weatherlink.com 1.10,2013-01-18 08:40:00,
2013-01-18 02:55:00,31.5,26.0,30.34,SE,139,3.0,10.0,80,0.00,,,0.00,weatherlink.com 1.10,2013-01-18 08:55:00,
2013-01-18 03:10:00,31.3,26.0,30.33,SE,124,2.0,8.0,80,0.00,,,0.00,weatherlink.com 1.10,2013-01-18 09:10:00,
2013-01-18 03:25:00,31.0,26.0,30.32,SE,126,5.0,7.0,80,0.00,,,0.00,weatherlink.com 1.10,2013-01-18 09:25:00,
2013-01-18 03:40:00,31.1,26.0,30.32,SE,140,3.0,6.0,80,0.00,,,0.00,weatherlink.com 1.10,2013-01-18 09:40:00,
2013-01-18 03:55:00,31.4,26.0,30.30,SE,132,3.0,8.0,80,0.00,,,0.00,weatherlink.com 1.10,2013-01-18 09:55:00,
2013-01-18 04:10:00,31.8,27.0,30.29,SE,129,6.0,7.0,81,0.00,,,0.00,weatherlink.com 1.10,2013-01-18 10:10:00,
2013-01-18 04:25:00,32.0,27.0,30.27,SE,134,2.0,7.0,81,0.00,,,0.00,weatherlink.com 1.10,2013-01-18 10:25:00,
2013-01-18 04:40:00,32.1,27.0,30.26,ESE,113,4.0,6.0,81,0.00,,,0.00,weatherlink.com 1.10,2013-01-18 10:40:00,
2013-01-18 04:55:00,32.4,27.0,30.26,SE,126,4.0,7.0,81,0.00,,,0.00,weatherlink.com 1.10,2013-01-18 10:55:00,
2013-01-18 05:10:00,32.5,27.0,30.25,SE,125,0.0,4.0,81,0.00,,,0.00,weatherlink.com 1.10,2013-01-18 11:10:00,
2013-01-18 05:25:00,32.8,28.0,30.24,ESE,119,2.0,7.0,81,0.00,,,0.00,weatherlink.com 1.10,2013-01-18 11:25:00,
2013-01-18 05:41:00,33.3,28.0,30.23,SSE,163,3.0,8.0,81,0.00,,,0.00,weatherlink.com 1.10,2013-01-18 11:41:00,
2013-01-18 05:56:00,33.7,28.0,30.22,SSE,156,2.0,11.0,81,0.00,,,0.00,weatherlink.com 1.10,2013-01-18 11:56:00,
2013-01-18 06:11:00,33.7,28.0,30.21,SSE,161,3.0,9.0,81,0.00,,,0.00,weatherlink.com 1.10,2013-01-18 12:11:00,
2013-01-18 06:26:00,33.9,29.0,30.20,South,184,7.0,12.0,81,0.00,,,0.00,weatherlink.com 1.10,2013-01-18 12:26:00,
2013-01-18 06:41:00,34.4,29.0,30.19,South,171,9.0,14.0,80,0.00,,,0.00,weatherlink.com 1.10,2013-01-18 12:41:00,
2013-01-18 06:56:00,34.8,29.0,30.19,SSE,161,5.0,14.0,80,0.00,,,0.00,weatherlink.com 1.10,2013-01-18 12:56:00,
2013-01-18 07:11:00,35.0,29.0,30.18,South,190,4.0,13.0,80,0.00,,,0.00,weatherlink.com 1.10,2013-01-18 13:11:00,
2013-01-18 07:26:00,35.1,29.0,30.18,South,180,5.0,12.0,79,0.00,,,0.00,weatherlink.com 1.10,2013-01-18 13:26:00,
2013-01-18 07:41:00,35.1,29.0,30.17,SE,144,7.0,13.0,79,0.00,,,0.00,weatherlink.com 1.10,2013-01-18 13:41:00,
2013-01-18 07:56:00,35.2,29.0,30.17,SSW,195,7.0,12.0,79,0.00,,,0.00,weatherlink.com 1.10,2013-01-18 13:56:00,
2013-01-18 08:11:00,36.1,30.0,30.16,South,178,9.0,13.0,78,0.00,,,0.00,weatherlink.com 1.10,2013-01-18 14:11:00,
2013-01-18 08:26:00,36.5,30.0,30.16,South,178,2.0,12.0,78,0.00,,,0.00,weatherlink.com 1.10,2013-01-18 14:26:00,
2013-01-18 08:41:00,37.7,31.0,30.15,SW,214,7.0,15.0,77,0.00,,,0.00,weatherlink.com 1.10,2013-01-18 14:41:00,
2013-01-18 08:56:00,38.5,31.0,30.14,SSE,159,10.0,17.0,75,0.00,,,0.00,weatherlink.com 1.10,2013-01-18 14:56:00,
2013-01-18 09:11:00,38.8,32.0,30.14,South,190,12.0,14.0,75,0.00,,,0.00,weatherlink.com 1.10,2013-01-18 15:11:00,
2013-01-18 09:26:00,39.4,32.0,30.14,South,169,4.0,12.0,74,0.00,,,0.00,weatherlink.com 1.10,2013-01-18 15:26:00,
2013-01-18 09:41:00,40.7,32.0,30.13,South,174,6.0,16.0,71,0.00,,,0.00,weatherlink.com 1.10,2013-01-18 15:41:00,
2013-01-18 09:56:00,42.1,33.0,30.12,South,184,6.0,14.0,69,0.00,,,0.00,weatherlink.com 1.10,2013-01-18 15:56:00,
2013-01-18 10:11:00,43.7,33.0,30.11,SSW,192,9.0,17.0,66,0.00,,,0.00,weatherlink.com 1.10,2013-01-18 16:11:00,
2013-01-18 10:26:00,44.7,33.0,30.09,South,186,9.0,19.0,64,0.00,,,0.00,weatherlink.com 1.10,2013-01-18 16:26:00,
2013-01-18 10:41:00,46.0,33.0,30.08,South,191,14.0,22.0,62,0.00,,,0.00,weatherlink.com 1.10,2013-01-18 16:41:00,
2013-01-18 10:57:00,46.6,33.0,30.07,SSW,208,9.0,26.0,60,0.00,,,0.00,weatherlink.com 1.10,2013-01-18 16:57:00,
2013-01-18 11:12:00,47.5,34.0,30.06,SSW,206,11.0,18.0,59,0.00,,,0.00,weatherlink.com 1.10,2013-01-18 17:12:00,
2013-01-18 11:27:00,48.3,34.0,30.04,SW,229,13.0,23.0,58,0.00,,,0.00,weatherlink.com 1.10,2013-01-18 17:27:00,
2013-01-18 11:42:00,49.2,34.0,30.02,SSW,198,10.0,21.0,56,0.00,,,0.00,weatherlink.com 1.10,2013-01-18 17:42:00,
2013-01-18 11:57:00,50.1,34.0,30.02,SSW,209,8.0,27.0,55,0.00,,,0.00,weatherlink.com 1.10,2013-01-18 17:57:00,
2013-01-18 12:12:00,50.6,34.0,30.02,WSW,255,13.0,26.0,54,0.00,,,0.00,weatherlink.com 1.10,2013-01-18 18:12:00,
2013-01-18 12:27:00,50.7,34.0,30.01,WSW,257,6.0,27.0,54,0.00,,,0.00,weatherlink.com 1.10,2013-01-18 18:27:00,
2013-01-18 12:42:00,51.1,34.0,30.00,WSW,255,17.0,25.0,53,0.00,,,0.00,weatherlink.com 1.10,2013-01-18 18:42:00,
2013-01-18 12:57:00,51.5,35.0,29.99,West,259,11.0,23.0,54,0.00,,,0.00,weatherlink.com 1.10,2013-01-18 18:57:00,
2013-01-18 13:12:00,51.5,35.0,29.98,SW,217,15.0,20.0,53,0.00,,,0.00,weatherlink.com 1.10,2013-01-18 19:12:00,
2013-01-18 13:27:00,52.1,35.0,29.96,SW,232,10.0,22.0,52,0.00,,,0.00,weatherlink.com 1.10,2013-01-18 19:27:00,
2013-01-18 13:42:00,52.3,35.0,29.96,SW,227,12.0,25.0,52,0.00,,,0.00,weatherlink.com 1.10,2013-01-18 19:42:00,
2013-01-18 13:57:00,52.7,35.0,29.96,SSW,201,11.0,19.0,51,0.00,,,0.00,weatherlink.com 1.10,2013-01-18 19:57:00,
2013-01-18 14:12:00,53.2,35.0,29.96,WNW,289,16.0,21.0,51,0.00,,,0.00,weatherlink.com 1.10,2013-01-18 20:12:00,
2013-01-18 14:27:00,53.7,35.0,29.96,SW,218,16.0,24.0,50,0.00,,,0.00,weatherlink.com 1.10,2013-01-18 20:27:00,
2013-01-18 14:42:00,54.1,36.0,29.95,SW,235,8.0,17.0,50,0.00,,,0.00,weatherlink.com 1.10,2013-01-18 20:42:00,
2013-01-18 14:57:00,54.3,35.0,29.94,SW,219,8.0,17.0,49,0.00,,,0.00,weatherlink.com 1.10,2013-01-18 20:57:00,
2013-01-18 15:12:00,54.4,35.0,29.94,SSW,211,10.0,21.0,49,0.00,,,0.00,weatherlink.com 1.10,2013-01-18 21:12:00,
2013-01-18 15:27:00,54.5,35.0,29.94,WSW,255,4.0,16.0,49,0.00,,,0.00,weatherlink.com 1.10,2013-01-18 21:27:00,
2013-01-18 15:42:00,54.1,35.0,29.94,WSW,243,10.0,18.0,48,0.00,,,0.00,weatherlink.com 1.10,2013-01-18 21:42:00,
2013-01-18 15:57:00,53.6,35.0,29.94,SSW,196,9.0,17.0,49,0.00,,,0.00,weatherlink.com 1.10,2013-01-18 21:57:00,
2013-01-18 16:12:00,53.3,35.0,29.94,WSW,239,5.0,13.0,51,0.00,,,0.00,weatherlink.com 1.10,2013-01-18 22:12:00,
2013-01-18 16:27:00,52.6,35.0,29.94,WNW,283,5.0,10.0,52,0.00,,,0.00,weatherlink.com 1.10,2013-01-18 22:27:00,
2013-01-18 16:42:00,51.4,35.0,29.95,West,265,3.0,8.0,53,0.00,,,0.00,weatherlink.com 1.10,2013-01-18 22:42:00,
2013-01-18 16:57:00,50.6,35.0,29.95,West,279,3.0,8.0,55,0.00,,,0.00,weatherlink.com 1.10,2013-01-18 22:57:00,
2013-01-18 17:12:00,48.6,34.0,29.95,WSW,250,3.0,6.0,58,0.00,,,0.00,weatherlink.com 1.10,2013-01-18 23:12:00,
2013-01-18 17:27:00,47.0,34.0,29.96,WNW,288,0.0,2.0,61,0.00,,,0.00,weatherlink.com 1.10,2013-01-18 23:27:00,
2013-01-18 17:42:00,45.7,34.0,29.96,West,279,2.0,4.0,63,0.00,,,0.00,weatherlink.com 1.10,2013-01-18 23:42:00,
2013-01-18 17:57:00,43.3,33.0,29.97,West,281,2.0,4.0,68,0.00,,,0.00,weatherlink.com 1.10,2013-01-18 23:57:00,
2013-01-18 18:12:00,42.9,33.0,29.97,West,278,0.0,1.0,67,0.00,,,0.00,weatherlink.com 1.10,2013-01-19 00:12:00,
2013-01-18 18:27:00,43.1,33.0,29.97,West,271,0.0,3.0,68,0.00,,,0.00,weatherlink.com 1.10,2013-01-19 00:27:00,
2013-01-18 18:42:00,43.2,33.0,29.96,WSW,251,5.0,7.0,68,0.00,,,0.00,weatherlink.com 1.10,2013-01-19 00:42:00,
2013-01-18 18:57:00,44.0,34.0,29.97,WSW,238,6.0,8.0,67,0.00,,,0.00,weatherlink.com 1.10,2013-01-19 00:57:00,
2013-01-18 19:12:00,44.0,33.0,29.97,WSW,256,4.0,7.0,66,0.00,,,0.00,weatherlink.com 1.10,2013-01-19 01:12:00,
2013-01-18 19:27:00,43.6,33.0,29.97,West,268,4.0,8.0,67,0.00,,,0.00,weatherlink.com 1.10,2013-01-19 01:27:00,
2013-01-18 19:42:00,43.4,33.0,29.97,West,269,2.0,8.0,68,0.00,,,0.00,weatherlink.com 1.10,2013-01-19 01:42:00,
2013-01-18 19:57:00,43.3,33.0,29.97,WSW,255,4.0,8.0,68,0.00,,,0.00,weatherlink.com 1.10,2013-01-19 01:57:00,
2013-01-18 20:12:00,43.6,33.0,29.96,WSW,248,3.0,9.0,67,0.00,,,0.00,weatherlink.com 1.10,2013-01-19 02:12:00,
2013-01-18 20:27:00,43.9,33.0,29.95,West,265,8.0,9.0,66,0.00,,,0.00,weatherlink.com 1.10,2013-01-19 02:27:00,
2013-01-18 20:43:00,44.1,33.0,29.95,WSW,252,4.0,11.0,66,0.00,,,0.00,weatherlink.com 1.10,2013-01-19 02:43:00,
2013-01-18 20:58:00,44.0,33.0,29.95,WSW,252,5.0,11.0,66,0.00,,,0.00,weatherlink.com 1.10,2013-01-19 02:58:00,
2013-01-18 21:13:00,43.6,33.0,29.95,West,265,6.0,12.0,66,0.00,,,0.00,weatherlink.com 1.10,2013-01-19 03:13:00,
2013-01-18 21:28:00,43.6,33.0,29.95,West,261,7.0,11.0,66,0.00,,,0.00,weatherlink.com 1.10,2013-01-19 03:28:00,
2013-01-18 21:43:00,43.3,33.0,29.95,WSW,246,4.0,9.0,66,0.00,,,0.00,weatherlink.com 1.10,2013-01-19 03:43:00,
2013-01-18 21:58:00,41.6,32.0,29.95,West,270,0.0,2.0,69,0.00,,,0.00,weatherlink.com 1.10,2013-01-19 03:58:00,
2013-01-18 22:13:00,42.5,33.0,29.95,West,262,4.0,6.0,68,0.00,,,0.00,weatherlink.com 1.10,2013-01-19 04:13:00,
2013-01-18 22:28:00,41.6,32.0,29.95,WSW,248,2.0,6.0,69,0.00,,,0.00,weatherlink.com 1.10,2013-01-19 04:28:00,
2013-01-18 22:43:00,41.2,32.0,29.94,SW,217,7.0,7.0,70,0.00,,,0.00,weatherlink.com 1.10,2013-01-19 04:43:00,
2013-01-18 22:58:00,41.3,32.0,29.94,WSW,246,3.0,7.0,70,0.00,,,0.00,weatherlink.com 1.10,2013-01-19 04:58:00,
2013-01-18 23:13:00,41.6,32.0,29.93,WSW,252,2.0,8.0,69,0.00,,,0.00,weatherlink.com 1.10,2013-01-19 05:13:00,
2013-01-18 23:28:00,41.1,32.0,29.93,WSW,245,6.0,7.0,69,0.00,,,0.00,weatherlink.com 1.10,2013-01-19 05:28:00,
2013-01-18 23:43:00,40.9,32.0,29.92,SSW,201,1.0,6.0,70,0.00,,,0.00,weatherlink.com 1.10,2013-01-19 05:43:00,